Simultaneous Nadir Overpasses (SNOs) Predictions

Prediction of SNOs between GOES-17 and METOP-B Satellite Orbit:

Table of predicted SNOs for the next 14.0 days since TLE Epoch: 6/6/2025
Index Date Time (GOES-17) GOES-17 Lat,Lon METOP-B Lat,Lon Distance(km) Time Diff (sec)
1 06/07/2025 16:07:11 0.01,-104.44 0.26,-105.46 116.04 80
2 06/08/2025 15:49:11 0.01,-104.44 -0.88,-100.48 452.09 80
3 06/10/2025 04:08:11 -0.01,-104.38 -0.17,-105.09 81.44 80
4 06/11/2025 03:44:51 -0.00,-104.37 0.96,-100.11 486.34 80
5 06/12/2025 16:03:43 0.00,-104.44 0.03,-104.69 28.88 80
6 06/15/2025 04:02:01 -0.00,-104.36 0.02,-104.31 5.90 80
7 06/17/2025 16:02:52 0.00,-104.42 -0.11,-103.91 58.76 80
8 06/19/2025 04:21:51 -0.01,-104.36 -0.91,-108.52 473.81 80
9 06/20/2025 03:58:31 -0.00,-104.36 0.17,-103.53 94.05 80
